Starlink 6365

operational
NORAD ID: 57237 Int'l Des: 2023-094 Owner: SPXS Country: US Constellation: starlink
LEOCIRCULAR

Starlink 6365について

説明を読み込み中...

リアルタイム位置

3D地球を読み込み中...

次回通過

高度履歴

Altitude vs Time

uPlot chart will show altitude changes over time

軌道要素

1 57237U 23094V 25258.71983996 .00000285 00000-0 36187-4 0 9990
2 57237 43.0028 260.7498 0001280 276.7892 83.2805 15.02540383120809
Epoch: Sep 15, 2025 • Age: 17 hours

現在のステータス

高度 570.6 km
速度 7.58 km/s
衛星直下点 -40.68°S, 7.52°W
打ち上げ日 Jul 7, 2023
運用期間 2.1 years
タイプ internet

技術仕様

分類 Payload
質量 305.00 kg
乾燥質量 290.00 kg
総質量 305.00 kg
長さ 0.20 m
直径 2.80 m
スパン 9.00 m
形状 Box + pan
製造者 SPXS
バスタイプ Starlink
フェーズステータス In Orbit
所有者/国 SPXS/US

大規模コンステレーション

Loading constellations...